Regional Weather Roundup
Issued by NWS Austin/San Antonio, TX

Home | Current Version | Previous Version | Text Only | Print | Product List | Glossary On
Versions: 1 2 3 4 5 6 7 8 9 10 11 12 13 14 15 16 17 18 19 20 21 22 23 24 25 26 27 28 29 30 31 32 33 34 35 36 37 38 39 40 41 42 43 44 45 46 47 48 49 50
334
ASUS44 KEWX 210602
RWREWX
SOUTH TEXAS REGIONAL WEATHER ROUNDUP
NATIONAL WEATHER SERVICE AUSTIN/SAN ANTONIO TX
100 AM CDT MON OCT 21 2019

NOTE: "FAIR" INDICATED FEW OR NO CLOUDS BELOW 12,000 FEET WITH NO
SIGNIFICANT WEATHER AND/OR OBSTRUCTIONS TO VISIBILITY.

* - THESE STATIONS ARE NOT NWS OR FAA STATIONS...AND ARE NOT SUBJECT
    TO NWS AND FAA QUALITY CONTROL.

TXZ171-172-183>190-210700-
TEXAS HILL COUNTRY AND EDWARDS PLATEAU

CITY           SKY/WX    TMP DP  RH WIND       PRES   REMARKS
JUNCTION       TSTM      64  63  96 VRB6      29.82R VSB 3/4
6HR MIN TEMP:  64; 6HR MAX TEMP:  86; 6HR PCP:  0.30;

*LLANO         PTCLDY    81  72  74 SW9       29.70F
BURNET         CLOUDY    77  72  84 S17G28    29.70F
6HR MIN TEMP:  77; 6HR MAX TEMP:  84;

*HORSESHOE BAY CLEAR     79  72  78 S18G30    29.68S
*KERRVILLE     MOCLDY    76  72  85 S7G20     29.74F
6HR MIN TEMP:  76; 6HR MAX TEMP:  82;

*FREDERICKSBRG MOCLDY    76  68  76 S6        29.75S
6HR MIN TEMP:  73; 6HR MAX TEMP:  81;

*ROCKSPRINGS   CLOUDY    75  68  78 S16G23    29.82R
*BOERNE        CLOUDY    75  73  94 S8        29.76F
*CASTROVILLE   CLOUDY    80  72  76 S13G20    29.73F
HONDO          CLOUDY    79  73  82 S12       29.73F
6HR MIN TEMP:  79; 6HR MAX TEMP:  87; 6HR PCP:  0.01;

*UVALDE        CLOUDY    79  73  83 SE7       29.73S
6HR MIN TEMP:  78; 6HR MAX TEMP:  87;

DEL RIO        CLEAR     80  70  71 SE9       29.69F
6HR MIN TEMP:  80; 6HR MAX TEMP:  92;

LAUGHLIN AFB   CLEAR     77  70  80 S7        29.71S
6HR MIN TEMP:  77; 6HR MAX TEMP:  90;

SPOFFORD       LGT RAIN  77  72  83 SE3       29.66S
*EAGLE PASS    MOCLDY    81  72  74 S7        29.71S
CARRIZO SPRGS  CLOUDY    79  72  78 S10       29.68F
*FAITH RANCH   CLEAR     79  73  83 S15G22    29.68F
$$

TXZ173-191>194-202-209-217>225-228-210700-
CENTRAL AND SOUTH CENTRAL TEXAS

CITY           SKY/WX    TMP DP  RH WIND       PRES   REMARKS
GEORGETOWN     MOCLDY    79  73  82 S21G28    29.69F
6HR MIN TEMP:  77; 6HR MAX TEMP:  86;

AUSTIN/BERGSTM PTCLDY    80  74  81 S15       29.69F
6HR MIN TEMP:  77; 6HR MAX TEMP:  87; 6HR PCP: TRACE;

AUSTIN/MABRY   PTCLDY    79  72  79 S7        29.71F
6HR MIN TEMP:  79; 6HR MAX TEMP:  88; 6HR PCP: TRACE;

*AUSTIN/EXEC   PTCLDY    77  73  88 S14G21    29.71F
*LAGO VISTA    CLOUDY    76  73  88 S13G23    29.72F
6HR MIN TEMP:  76; 6HR MAX TEMP:  84;

SAN MARCOS     CLOUDY    80  74  81 S15       29.73F
6HR MIN TEMP:  79; 6HR MAX TEMP:  83;

NEW BRAUNFELS  MOCLDY    80  74  81 S16       29.72F
6HR MIN TEMP:  80; 6HR MAX TEMP:  87;

RANDOLPH AFB   CLOUDY    79  74  85 S13       29.73F
6HR MIN TEMP:  79; 6HR MAX TEMP:  86;

SEGUIN         CLOUDY    78  74  88 S13       29.76F
6HR MIN TEMP:  78; 6HR MAX TEMP:  82;

KELLY FIELD    PTCLDY    80  74  83 SE12      29.71F
6HR MIN TEMP:  80; 6HR MAX TEMP:  88;

SAN ANTONIO    CLOUDY    80  74  81 S13       29.73F
6HR MIN TEMP:  80; 6HR MAX TEMP:  88;

STINSON FIELD  CLOUDY    78  75  90 S8        29.70F
6HR MIN TEMP:  78; 6HR MAX TEMP:  86;

PLEASANTON     CLOUDY    78  73  84 SE6       29.72F
6HR MIN TEMP:  78; 6HR MAX TEMP:  87;

*LA GRANGE     CLOUDY    82  78  89 S12       29.70F HX  91
6HR MIN TEMP:  81; 6HR MAX TEMP:  86;

*GIDDINGS      CLOUDY    81  77  88 S12       29.72F
6HR MIN TEMP:  73; 6HR MAX TEMP:  88; 6HR PCP:  0.07;

*GONZALES      CLOUDY    80  77  90 S10G17    29.71F
6HR MIN TEMP:  80; 6HR MAX TEMP:  85;

$$

TXZ163>164-176>182-195>201-210>213-226-227-235-210700-
SOUTHEAST TEXAS

CITY           SKY/WX    TMP DP  RH WIND       PRES   REMARKS
COLLEGE STN    CLOUDY    82  75  79 S13G21    29.70F
6HR MIN TEMP:  82; 6HR MAX TEMP:  86; 6HR PCP: TRACE;

*BRYAN         CLOUDY    81  78  90 S13G21    29.71F HX  90
6HR MIN TEMP:  81; 6HR MAX TEMP:  86;

*CALDWELL      CLOUDY    79  75  87 S12G24    29.71F
6HR MIN TEMP:  78; 6HR MAX TEMP:  85;

*CROCKETT        N/A     77  73  88 S12       29.73F
*BRENHAM       CLOUDY    81  76  85 S13G20    29.72F
6HR MIN TEMP:  81; 6HR MAX TEMP:  85;

HUNTSVILLE     CLOUDY    80  73  79 S10G21    29.71F
6HR MIN TEMP:  80; 6HR MAX TEMP:  85;

CONROE         CLOUDY    80  75  84 S15G23    29.73F
6HR MIN TEMP:  79; 6HR MAX TEMP:  82;

HOUSTON BUSH   MOCLDY    81  75  82 S9        29.74F
6HR MIN TEMP:  80; 6HR MAX TEMP:  83;

HOUSTON HOBBY  MOCLDY    81  75  82 S14       29.74F
6HR MIN TEMP:  80; 6HR MAX TEMP:  83;

*HOUSTON SW AP FAIR      79  76  92 S3        29.75F
6HR MIN TEMP:  77; 6HR MAX TEMP:  80;

PEARLAND       MOCLDY    82  76  81 S10       29.76F
6HR MIN TEMP:  81; 6HR MAX TEMP:  83;

HOUSTON HOOKS  MOCLDY    80  74  81 S12       29.74F
6HR MIN TEMP:  79; 6HR MAX TEMP:  83;

ELLINGTON FLD  MOCLDY    79  75  89 S12       29.73F
SUGAR LAND     FAIR      80  77  90 S13       29.74F
6HR MIN TEMP:  79; 6HR MAX TEMP:  82;

*HOUSTON EXEC  MOCLDY    79  77  94 S9        29.74F
*CLEVELAND MUN CLOUDY    78  78 100 S12       29.75F
*WHARTON       MOCLDY    79  75  87 S8        29.75F
6HR MIN TEMP:  78; 6HR MAX TEMP:  81;

*COLUMBUS      RAIN      76  73  88 S12       29.73F
6HR MIN TEMP:  76; 6HR MAX TEMP:  80;

*EAGLE LAKE    CLOUDY    81  78  92 S12G17    29.72F
6HR MIN TEMP:  81; 6HR MAX TEMP:  84;

$$

TXZ214>216-236>238-210700-
THE UPPER TEXAS COAST

CITY           SKY/WX    TMP DP  RH WIND       PRES   REMARKS
*ORANGE        FAIR      80  78  94 S10       29.79S
6HR MIN TEMP:  80; 6HR MAX TEMP:  81;

PORT ARTHUR    FAIR      80  76  87 S13       29.76F
6HR MIN TEMP:  79; 6HR MAX TEMP:  81;

GALVESTON      FAIR      82  78  88 S21       29.75F HX  91
6HR MIN TEMP:  82; 6HR MAX TEMP:  83;

ANGLETON       FAIR      80  75  84 S9        29.74F
6HR MIN TEMP:  79; 6HR MAX TEMP:  82;

*BAY CITY      MOCLDY    82  79  92 S9        29.74F HX  92
PALACIOS       MOCLDY    81  76  84 S12       29.73F
6HR MIN TEMP:  81; 6HR MAX TEMP:  82;

$$

TXZ229>234-239>247-210700-
TEXAS COASTAL BEND AND RIO GRANDE PLAINS

CITY           SKY/WX    TMP DP  RH WIND       PRES   REMARKS
VICTORIA       CLOUDY    82  77  84 S13       29.73F HX  90
6HR MIN TEMP:  80; 6HR MAX TEMP:  83;

*BEEVILLE      CLOUDY    84  78  81 S15G22    29.72F HX  95
6HR MIN TEMP:  83; 6HR MAX TEMP:  87;

ROCKPORT       MOCLDY    83  77  82 S10       29.72F HX  92
6HR MIN TEMP:  83; 6HR MAX TEMP:  84;

*PORT ARANSAS  PTCLDY    82  79  91 S13       29.74F HX  91
6HR MIN TEMP:  82; 6HR MAX TEMP:  82;

*PORT LAVACA   MOCLDY    83  80  89 S10       29.74F HX  95
6HR MIN TEMP:  82; 6HR MAX TEMP:  84;

*INGLESIDE     PTCLDY    82  80  91 S13       29.73F HX  94
CORPUS CHRISTI LGT RAIN  83  78  85 S17       29.72F HX  93
6HR MIN TEMP:  83; 6HR MAX TEMP:  84; 6HR PCP: TRACE;

CORPUS NAS     MOCLDY    81  81 100 S15G21    29.72F HX  92
6HR MIN TEMP:  81; 6HR MAX TEMP:  83;

*ROBSTOWN      PTCLDY    82  77  85 S14       29.74F
ALICE          CLOUDY    83  76  79 S13G20    29.71F HX  91
6HR MIN TEMP:  82; 6HR MAX TEMP:  85;

KINGSVILLE NAS CLOUDY    83  78  85 S12       29.72F HX  93
6HR MIN TEMP:  82; 6HR MAX TEMP:  85;

COTULLA        CLEAR     81  76  84 S8        29.69F
6HR MIN TEMP:  81; 6HR MAX TEMP:  92;

LAREDO         MOCLDY    82  74  76 S20G25    29.69F
6HR MIN TEMP:  82; 6HR MAX TEMP:  88;

$$

TXZ248>255-210700-
DEEP SOUTH TEXAS

CITY           SKY/WX    TMP DP  RH WIND       PRES   REMARKS
BROWNSVIL



USA.gov is the U.S. government's official web portal to all federal, state and local government web resources and services.